This is the latest recevied weather packets stored in our database for station/object KY0TEQ-13. If no packets are shown the sender has not sent any weather packets the latest 10 day(s).
| Time | Temp. | Humidity | Pressure | Rain* | Wind** | Luminosity | Snow |
|---|---|---|---|---|---|---|---|
| 1788154680 | 60° F | 63% | 983.4 mmHg | 0 in | - | 0 W/m² | - |
| 1788154378 | 59° F | 65% | 983.3 mmHg | 0 in | - | 0 W/m² | - |
| 1788154073 | 59° F | 65% | 983.4 mmHg | 0 in | - | 0 W/m² | - |
| 1788153772 | 59° F | 65% | 983.3 mmHg | 0 in | - | 0 W/m² | - |
| 1788153470 | 59° F | 66% | 983.3 mmHg | 0 in | - | 0 W/m² | - |
| 1788153169 | 59° F | 66% | 983.5 mmHg | 0 in | - | 0 W/m² | - |
| 1788152864 | 58° F | 67% | 983.5 mmHg | 0 in | - | 0 W/m² | - |
| 1788152563 | 58° F | 67% | 983.6 mmHg | 0 in | - | 0 W/m² | - |
| 1788152258 | 59° F | 66% | 983.5 mmHg | 0 in | - | 0 W/m² | - |
| 1788151958 | 58° F | 67% | 983.5 mmHg | 0 in | - | 0 W/m² | - |
| 1788151653 | 59° F | 66% | 983.6 mmHg | 0 in | - | 0 W/m² | - |
| 1788151348 | 59° F | 65% | 983.8 mmHg | 0 in | - | 0 W/m² | - |
| 1788151044 | 58° F | 68% | 983.8 mmHg | 0 in | - | 0 W/m² | - |
| 1788150739 | 58° F | 68% | 983.6 mmHg | 0 in | - | 0 W/m² | - |
| 1788150439 | 58° F | 69% | 983.5 mmHg | 0 in | - | 0 W/m² | - |
| 1788150134 | 59° F | 67% | 983.6 mmHg | 0 in | - | 0 W/m² | - |
| 1788149829 | 59° F | 66% | 983.5 mmHg | 0 in | - | 0 W/m² | - |
| 1788149528 | 59° F | 66% | 983.5 mmHg | 0 in | - | 0 W/m² | - |
| 1788149223 | 59° F | 67% | 983.4 mmHg | 0 in | - | 0 W/m² | - |
| 1788148922 | 60° F | 65% | 983.3 mmHg | 0 in | - | 0 W/m² | - |
| 1788148621 | 59° F | 65% | 983.2 mmHg | 0 in | - | 0 W/m² | - |
| 1788148315 | 61° F | 64% | 983.2 mmHg | 0 in | - | 0 W/m² | - |
| 1788148014 | 61° F | 61% | 983.2 mmHg | 0 in | - | 0 W/m² | - |
| 1788147710 | 61° F | 61% | 983.1 mmHg | 0 in | - | 0 W/m² | - |
| 1788147405 | 61° F | 62% | 983.2 mmHg | 0 in | - | 0 W/m² | - |
* Rain latest hour (hover to see other rain measurements)
** Current wind speed in m/s (hover to see current wind gust speed)